Back to catalog

CZ-6A DEB

AlivePO
NORAD 61809·DEBRIS·🇨🇳 China

Launched Aug 6, 2024 from Taiyuan Satellite Launch Center

Loading…

Next Passes (next 24 hours)

TLE

FreshSource: Space-Track

Epoch: Sep 14, 2026, 10:20 UTC

1 61809U 24140ABZ 26257.43077576  .00000970  00000-0  13060-3 0  9995
2 61809  88.9971 257.5927 0164090 253.3314 104.9836 14.69396799108672

Track CZ-6A DEB in real time with AllMySat

Download on the App Store